Location: Newark
(43.6583°N, 1.6617°E)
Time: 18:05:03
(UTC+00:00)

Courier 1B - Pass Details

Date: 03 September 2019
Orbit: 962 x 1209 km, 28.3° (Epoch: 14 October)

Event Time Altitude Azimuth Distance (km) Brightness Sun altitude
Rises 12:12:37 0° 218° (SW) 4,098 11.2 53.6°
Reaches altitude 10° 12:16:38 10° 200° (SSW) 3,120 10.9 53.5°
Maximum altitude 12:21:18 17° 163° (SSE) 2,590 10.6 53.3°
Drops below altitude 10° 12:25:52 10° 125° (SE) 3,051 10.4 53.2°
Sets 12:29:43 0° 107° (ESE) 3,969 10.7 53.0°
